Location: Unspecified
(0.0000°N, 0.0000°E)
Time: 10:18:56
(UTC+02:00)

NOSS 3-3 (A) - Visible Passes

Search period start: 30 June 2015 00:00
Search period end: 10 July 2015 00:00
Orbit: 955 x 1258 km, 63.4° (Epoch: 27 June)

Date Brightness Start Highest point End Pass type
(mag) Time Alt. Az. Time Alt. Az. Time Alt. Az.
30 Jun 4.1 21:54:00 10° SSW 22:00:14 74° WNW 22:06:29 10° NNE visible
01 Jul 4.0 21:09:32 10° S 21:15:40 57° ESE 21:21:47 10° NE visible
01 Jul 6.8 23:04:28 10° W 23:06:37 11° WNW 23:08:13 10° NW visible
02 Jul 4.7 20:25:47 10° S 20:31:01 29° ESE 20:36:21 10° NE visible
02 Jul 6.1 22:16:47 10° WSW 22:21:47 24° WNW 22:26:37 10° NNW visible
03 Jul 4.9 21:31:07 10° SW 21:37:06 48° WNW 21:43:05 10° N visible
04 Jul 7.8 07:20:17 10° NE 07:23:35 14° ENE 07:27:36 10° E visible
04 Jul 3.9 20:46:14 10° SSW 20:52:31 86° ESE 20:58:47 10° NNE visible
05 Jul 6.8 21:55:02 10° W 21:58:46 16° WNW 22:02:08 10° NNW visible
06 Jul 5.9 21:08:31 10° SW 21:14:00 31° WNW 21:19:24 10° N visible
07 Jul 7.2 06:55:20 10° NNE 07:00:40 21° ENE 07:06:27 10° ESE visible
07 Jul 4.6 20:23:11 10° SSW 20:29:22 63° WNW 20:35:33 10° NNE visible
08 Jul 7.8 06:15:41 10° ENE 06:15:42 10° ENE 06:16:36 10° ENE visible
09 Jul 5.4 07:14:51 10° N 07:22:24 54° ENE 07:30:02 10° SE visible
09 Jul 6.9 20:46:20 10° WSW 20:50:57 21° WNW 20:55:20 10° NNW visible
